Voltar ao catálogo

SL-8 DEB

AtivoLEO
NORAD 5301·DEBRIS·🇷🇺 Russia

Lançado Apr 23, 1971 de Plesetsk Cosmodrome

Loading…

Próximas Passagens (próximas 24 horas)

TLE

AtualizadoSource: Space-Track

Época: Sep 14, 2026, 10:29 UTC

1 05301U 71035D   26257.43746714  .00004381  00000-0  46027-3 0  9991
2 05301  74.0236  47.3170 0008735 192.0190 168.0785 14.89763458925220

Acompanhe SL-8 DEB em tempo real com AllMySat

Download on the App Store